World > North America > United States > Alaska
Hourly Weather in Toksook Bay, AlaskaToksook Bay, Alaska Hourly Weather

Toksook Bay, AK Hourly Weather

Hourly Weather Toksook Bay, AlaskaHourly Weather in Toksook Bay, AK
Lat: 60.49N, Lon: 165.09W  ICAO: PAOO
Web Search

Did you know? You can add this page to Bookmarks by pressing the Ctrl key & d key at the same time. Mac users press command & d.

Feedback

Toksook Bay Hourly Weather

36 Hour Weather Scroll   °F Click to change Toksook Bay hourly weather to Imperial units.Click to change Toksook Bay hourly weather to Metric units. °C
Currently, Mostly Cloudy, temperature is 40°F4°C, dew point 38°F3°C, humidity 93%. Wind direction is S at 10 mph16 km/h with visibility of 10.00 mi16 km. Barometric pressure is 29 in982 mb.

Oct 19
1:00 PM

Oct 19
2:00 PM

Oct 19
3:00 PM

Oct 19
4:00 PM

Oct 19
5:00 PM

Oct 19
6:00 PM

Oct 19
7:00 PM

Oct 19
8:00 PM

Oct 19
9:00 PM

Oct 19
10:00 PM

Oct 19
11:00 PM

Oct 20
MIDNIGHT

Oct 20
1:00 AM

Oct 20
2:00 AM

Oct 20
3:00 AM

Oct 20
4:00 AM

Oct 20
5:00 AM

Oct 20
6:00 AM

Oct 20
7:00 AM

Oct 20
8:00 AM

Oct 20
9:00 AM

Oct 20
10:00 AM

Oct 20
11:00 AM

Oct 20
NOON

Oct 20
1:00 PM

Oct 20
2:00 PM

Oct 20
3:00 PM

Oct 20
4:00 PM

Oct 20
5:00 PM

Oct 20
6:00 PM

Oct 20
7:00 PM

Oct 20
8:00 PM

Oct 20
9:00 PM

Oct 20
10:00 PM

Oct 20
11:00 PM

Oct 21
MIDNIGHT
Cloudy Cloudy Mostly Cloudy Mostly Cloudy Mostly Cloudy Mostly Cloudy Mostly Cloudy Mostly Cloudy Cloudy Cloudy Cloudy Cloudy Cloudy Cloudy Cloudy Cloudy Cloudy Cloudy Cloudy Cloudy Cloudy Cloudy Cloudy Cloudy Cloudy Cloudy Cloudy Cloudy Cloudy Cloudy Cloudy Cloudy Cloudy Cloudy Cloudy Cloudy
Cloudy Cloudy Mostly Cloudy Mostly Cloudy Mostly Cloudy Mostly Cloudy Mostly Cloudy Mostly Cloudy Cloudy Cloudy Cloudy Cloudy Cloudy Cloudy Cloudy Cloudy Cloudy Cloudy Cloudy Cloudy Cloudy Cloudy Cloudy Cloudy Cloudy Cloudy Cloudy Cloudy Cloudy Cloudy Cloudy Cloudy Cloudy Cloudy Cloudy Cloudy
37°F3°C 37°F3°C 38°F3°C 38°F3°C 38°F3°C 37°F3°C 37°F3°C 36°F2°C 36°F2°C 35°F2°C 35°F2°C 35°F2°C 35°F2°C 35°F2°C 35°F2°C 35°F2°C 35°F2°C 35°F2°C 35°F2°C 35°F2°C 35°F2°C 35°F2°C 36°F2°C 36°F2°C 37°F3°C 37°F3°C 38°F3°C 38°F3°C 37°F3°C 36°F2°C 35°F2°C 34°F1°C 33°F1°C 32°F0°C 32°F0°C 32°F0°C
Rain Rain Rain Rain Rain Rain Rain Rain Rain Rain Rain Rain Rain Rain Rain Rain Rain Rain Rain Rain Rain Rain Rain Rain Rain Rain Rain Rain Rain Rain Rain Rain Snow Snow Snow Snow
32% 32% 32% 32% 38% 38% 38% 38% 38% 38% 42% 42% 42% 42% 42% 42% 36% 36% 36% 36% 36% 36% 33% 33% 33% 33% 33% 33% 31% 31% 31% 31% 31% 31% 24% 24%
34°F1°C 34°F1°C 34°F1°C 34°F1°C 34°F1°C 33°F1°C 33°F1°C 33°F1°C 32°F0°C 32°F0°C 32°F0°C 32°F0°C 32°F0°C 32°F0°C 32°F0°C 32°F0°C 32°F0°C 32°F0°C 32°F0°C 32°F0°C 33°F1°C 33°F1°C 33°F1°C 33°F1°C 33°F1°C 33°F1°C 33°F1°C 33°F1°C 32°F0°C 32°F0°C 31°F-1°C 30°F-1°C 30°F-1°C 29°F-2°C 29°F-2°C 29°F-2°C
89% 89% 85% 85% 85% 85% 85% 89% 85% 89% 89% 89% 89% 89% 89% 89% 89% 89% 89% 89% 92% 92% 89% 89% 85% 85% 82% 82% 82% 85% 85% 85% 89% 89% 89% 89%
S S S S S SSE SSE SW SW SW SW SW SW SW SW SW SW SW SW SW SSW SSW SSW SSW SSW SSW SSW SSW SSW SSW SSW SSW SW SW SW SSE
6 mph 6 mph 6 mph 6 mph 6 mph 5 mph 5 mph 5 mph 8 mph 8 mph 8 mph 11 mph 11 mph 11 mph 10 mph 10 mph 10 mph 9 mph 9 mph 9 mph 10 mph 10 mph 10 mph 10 mph 10 mph 10 mph 12 mph 12 mph 12 mph 8 mph 8 mph 8 mph 6 mph 6 mph 6 mph 6 mph
10 mi16 km 10 mi16 km 10 mi16 km 10 mi16 km 10 mi16 km 10 mi16 km 10 mi16 km 10 mi16 km 10 mi16 km 10 mi16 km 10 mi16 km 10 mi16 km 10 mi16 km 10 mi16 km 10 mi16 km 10 mi16 km 10 mi16 km 10 mi16 km 10 mi16 km 10 mi16 km 10 mi16 km 10 mi16 km 10 mi16 km 10 mi16 km 10 mi16 km 10 mi16 km 10 mi16 km 10 mi16 km 10 mi16 km 10 mi16 km 10 mi16 km 10 mi16 km 10 mi16 km 10 mi16 km 10 mi16 km 10 mi16 km
Hour (ADT)
Weather
Clouds
Temperature
Precip. Type
POP
Dewpoint
Humidity
Wind Direction
Wind Speed
Visibility
POP = Probability of Precipitation. ** Indicates missing data/values from model statistics.

24 Hour Forecast

Tonight - A chance of snow in the evening, then rain and snow after midnight. Snow accumulation up to 2 inches. Lows in the upper 20s to mid 30s. Southeast wind 15 to 30 mph.
Tuesday - Mostly cloudy with a chance of rain showers and a slight chance of snow showers. Highs around 40. South wind 10 to 20 mph.

48 Hour Forecast API Feed


Tue, Oct 19
1:00 pm

Tue, Oct 19
2:00 pm

Tue, Oct 19
3:00 pm

Tue, Oct 19
4:00 pm

Tue, Oct 19
5:00 pm

Tue, Oct 19
6:00 pm

Tue, Oct 19
7:00 pm

Tue, Oct 19
8:00 pm

Tue, Oct 19
9:00 pm

Tue, Oct 19
10:00 pm

Tue, Oct 19
11:00 pm

Wed, Oct 20
Midnight

Wed, Oct 20
1:00 am

Wed, Oct 20
2:00 am

Wed, Oct 20
3:00 am

Wed, Oct 20
4:00 am

Wed, Oct 20
5:00 am

Wed, Oct 20
6:00 am

Wed, Oct 20
7:00 am

Wed, Oct 20
8:00 am

Wed, Oct 20
9:00 am

Wed, Oct 20
10:00 am

Wed, Oct 20
11:00 am

Wed, Oct 20
Noon

Wed, Oct 20
1:00 pm

Wed, Oct 20
2:00 pm

Wed, Oct 20
3:00 pm

Wed, Oct 20
4:00 pm

Wed, Oct 20
5:00 pm

Wed, Oct 20
6:00 pm

Wed, Oct 20
7:00 pm

Wed, Oct 20
8:00 pm

Wed, Oct 20
9:00 pm

Wed, Oct 20
10:00 pm

Wed, Oct 20
11:00 pm

Thu, Oct 21
Midnight

Thu, Oct 21
1:00 am

Thu, Oct 21
2:00 am

Thu, Oct 21
3:00 am

Thu, Oct 21
4:00 am

Thu, Oct 21
5:00 am

Thu, Oct 21
6:00 am

Thu, Oct 21
7:00 am

Thu, Oct 21
8:00 am

Thu, Oct 21
9:00 am

Thu, Oct 21
10:00 am

Thu, Oct 21
11:00 am

Thu, Oct 21
Noon
Patchy Heavy SnowModerate Or Heavy Snow ShowersModerate Or Heavy Snow ShowersPartly CloudyPatchy Light SnowCloudyModerate Or Heavy Snow ShowersCloudyLight Snow ShowersPartly CloudyModerate Or Heavy Snow ShowersModerate Or Heavy Snow ShowersModerate Or Heavy Snow ShowersModerate Or Heavy Snow ShowersModerate Or Heavy Snow ShowersBlizzardBlowing SnowLight SnowLight SnowLight Snow ShowersLight Snow ShowersModerate Or Heavy Snow ShowersModerate Or Heavy Snow ShowersLight Snow ShowersBlizzardLight Snow ShowersLight Snow ShowersBlizzardOvercastLight Snow ShowersBlizzardLight Snow ShowersLight Snow ShowersModerate Or Heavy Snow ShowersLight Snow ShowersLight Snow ShowersPatchy Snow PossibleLight Snow ShowersLight Snow ShowersModerate Or Heavy Snow ShowersPatchy Moderate SnowPatchy Light SnowModerate SnowLight SnowLight SnowModerate SnowOvercastOvercast
Patchy heavy snow Moderate snow showers Moderate snow showers Partly cloudy Patchy light snow Cloudy Moderate snow showers Cloudy Light snow showers Partly cloudy Moderate snow showers Moderate snow showers Moderate snow showers Moderate snow showers Moderate snow showers Blizzard Blowing snow Light snow Light snow Light snow showers Light snow showers Moderate snow showers Moderate snow showers Light snow showers Blizzard Light snow showers Light snow showers Blizzard Overcast Light snow showers Blizzard Light snow showers Light snow showers Moderate snow showers Light snow showers Light snow showers Patchy snow possible Light snow showers Light snow showers Moderate snow showers Patchy moderate snow Patchy light snow Moderate snow Light snow Light snow Moderate snow Overcast Overcast
37°F
3°C
38°F
3°C
38°F
3°C
38°F
3°C
38°F
3°C
37°F
3°C
35°F
2°C
34°F
1°C
34°F
1°C
34°F
1°C
34°F
1°C
35°F
1°C
34°F
1°C
35°F
2°C
36°F
2°C
36°F
2°C
36°F
2°C
34°F
1°C
34°F
1°C
36°F
2°C
36°F
2°C
35°F
2°C
37°F
3°C
37°F
3°C
37°F
3°C
38°F
4°C
38°F
3°C
38°F
4°C
38°F
3°C
37°F
3°C
37°F
3°C
34°F
1°C
34°F
1°C
35°F
1°C
35°F
2°C
34°F
1°C
32°F
-0°C
31°F
-1°C
31°F
-1°C
31°F
-1°C
31°F
-1°C
30°F
-1°C
31°F
-1°C
31°F
-0°C
32°F
-0°C
32°F
0°C
34°F
1°C
35°F
1°C
35°F
2°C
35°F
1°C
34°F
1°C
34°F
1°C
33°F
1°C
32°F
0°C
31°F
-0°C
30°F
-1°C
30°F
-1°C
31°F
-1°C
31°F
-1°C
32°F
-0°C
32°F
0°C
31°F
-1°C
32°F
-0°C
33°F
0°C
32°F
-0°C
31°F
-1°C
31°F
-1°C
33°F
1°C
33°F
1°C
33°F
1°C
34°F
1°C
33°F
1°C
34°F
1°C
34°F
1°C
35°F
1°C
32°F
0°C
32°F
-0°C
33°F
0°C
33°F
0°C
32°F
0°C
32°F
-0°C
32°F
-0°C
31°F
-1°C
29°F
-2°C
27°F
-3°C
26°F
-4°C
25°F
-4°C
28°F
-2°C
29°F
-2°C
29°F
-2°C
28°F
-2°C
27°F
-3°C
27°F
-3°C
27°F
-3°C
28°F
-2°C
29°F
-2°C
29 in
982 mb
29 in
982 mb
29 in
982 mb
29 in
982 mb
28.97 in
981 mb
28.97 in
981 mb
28.97 in
981 mb
29 in
982 mb
29 in
982 mb
29 in
982 mb
29.03 in
983 mb
29.03 in
983 mb
29.06 in
984 mb
29.06 in
984 mb
29.09 in
985 mb
29.12 in
986 mb
29.12 in
986 mb
29.15 in
987 mb
29.15 in
987 mb
29.18 in
988 mb
29.18 in
988 mb
29.21 in
989 mb
29.23 in
990 mb
29.26 in
991 mb
29.29 in
992 mb
29.32 in
993 mb
29.32 in
993 mb
29.35 in
994 mb
29.35 in
994 mb
29.38 in
995 mb
29.41 in
996 mb
29.44 in
997 mb
29.44 in
997 mb
29.47 in
998 mb
29.47 in
998 mb
29.47 in
998 mb
29.47 in
998 mb
29.47 in
998 mb
29.47 in
998 mb
29.44 in
997 mb
29.44 in
997 mb
29.38 in
995 mb
29.35 in
994 mb
29.32 in
993 mb
29.29 in
992 mb
29.26 in
991 mb
29.23 in
990 mb
29.18 in
988 mb
92%88%87%84%84%85%86%86%85%88%87%89%91%84%85%87%85%88%88%90%90%91%89%88%87%83%88%79%78%83%85%93%92%89%84%83%81%80%79%89%94%94%89%85%82%80%80%79%
SWSWSSWSSWSSWSSWSSWSSWSSWSWSWSWSWWSWWSWWSWWSWSWSWWSWWSWSWWSWWWWSWWWWWSWWWWWSWWSWSWSSWSSSSESEESEESEESEESEESEESEESE
6 mph
10 km/h
9 mph
14 km/h
9 mph
14 km/h
9 mph
15 km/h
11 mph
17 km/h
10 mph
17 km/h
9 mph
15 km/h
7 mph
12 km/h
7 mph
12 km/h
9 mph
14 km/h
12 mph
19 km/h
15 mph
25 km/h
13 mph
21 km/h
14 mph
22 km/h
16 mph
26 km/h
18 mph
29 km/h
18 mph
29 km/h
15 mph
24 km/h
12 mph
19 km/h
13 mph
21 km/h
14 mph
23 km/h
14 mph
23 km/h
13 mph
22 km/h
16 mph
26 km/h
17 mph
28 km/h
17 mph
28 km/h
21 mph
33 km/h
21 mph
35 km/h
17 mph
27 km/h
17 mph
27 km/h
17 mph
28 km/h
14 mph
22 km/h
11 mph
18 km/h
12 mph
19 km/h
11 mph
18 km/h
7 mph
12 km/h
7 mph
12 km/h
6 mph
10 km/h
7 mph
11 km/h
8 mph
13 km/h
6 mph
9 km/h
6 mph
10 km/h
7 mph
11 km/h
9 mph
14 km/h
10 mph
16 km/h
13 mph
22 km/h
20 mph
33 km/h
25 mph
40 km/h
62%89%51%0%0%0%74%0%61%0%74%82%74%80%77%73%0%0%72%0%0%88%66%0%87%83%74%61%0%0%62%80%77%74%63%0%0%0%0%0%0%0%0%0%0%0%0%0%
3 mi
5 km
4 mi
7 km
4 mi
7 km
6 mi
10 km
6 mi
10 km
6 mi
10 km
4 mi
7 km
6 mi
10 km
6 mi
10 km
6 mi
10 km
4 mi
7 km
4 mi
7 km
4 mi
7 km
4 mi
7 km
4 mi
7 km
0 mi
0 km
1 mi
2 km
6 mi
10 km
6 mi
10 km
6 mi
10 km
6 mi
10 km
4 mi
7 km
4 mi
7 km
6 mi
10 km
0 mi
0 km
6 mi
10 km
6 mi
10 km
0 mi
0 km
6 mi
10 km
6 mi
10 km
0 mi
0 km
6 mi
10 km
6 mi
10 km
4 mi
7 km
6 mi
10 km
6 mi
10 km
6 mi
9 km
6 mi
10 km
6 mi
10 km
4 mi
7 km
4 mi
7 km
6 mi
10 km
3 mi
5 km
6 mi
10 km
6 mi
10 km
3 mi
5 km
6 mi
10 km
6 mi
10 km

Day/Time
Weather
Condition
Temperature
Dew Point
Pressure
Humidity
Wind Direction
Wind Speed
Prob Precip %
Visibility
Prob Precip % = Probability of Precipitation.